Weather in Ostrov Bol'shoy Oleny

Russia / Murmansk Oblast     69°04′41″N   36°20′33″E
temp.,
°C
wind,
m/s
gust,
m/s
humid.,
%
clouds,
%
prec.,
mm/h
press.,
hPa
HPBL,
m
27 november, sat
sat2700:00−6ne4564100 0.1 1001236
03:00−6ne4767100 0.4 1002259
06:00−6ne5764100 0.2 1003297
09:00−5ne4663100 0.3 1005305
12:00−6ne3566100 0.1 1007237
15:00−9ne037279 0.1 1009168
18:00−11s237775 0.0 1010170
21:00−12ssw328393 0.0 1012100
28 november, sun
sun2800:00−13sw338815 0.0 101235
03:00−14ssw459227 0.0 101363
06:00−13ssw479336 0.0 101382
09:00−14ssw57905 0.0 101391
12:00−14ssw59915 0.0 1014122
15:00−14ssw58885 0.0 1014103
18:00−14ssw458615 0.0 101464
21:00−15sw448834 0.0 101447
29 november, mon
mon2900:00−15sw338690 0.0 101439
03:00−14sw338299 0.0 101454
06:00−15sw338454 0.0 101441
09:00−16sw338371 0.0 101544
12:00−16ssw448015 0.0 101553
15:00−16ssw45807 0.0 101558
18:00−16ssw457779 0.0 101558
21:00−15ssw577865 0.0 101480
30 november, tue
tue3000:00−15ssw598040 0.0 101499
03:00−13ssw5872100 0.0 101397
06:00−12s5776100 0.0 101198
09:00−12sse4692100 0.0 1010104
12:00−12sse3492100 0.0 100875
15:00−10sse3795100 0.0 1004138
18:00−6se61375100 0.0 1002415
21:00−4ese101666100 0.0 999666
1 december, wed
wed100:00−4ese121865100 0.0 996832
03:00−3ese141958100 0.0 994889
06:00−3e162156100 0.0 9931041
09:00−2e172258100 0.0 9931190
12:00−2e172260100 0.0 9941309
15:00−3e172260100 0.0 9941243
18:00−3e172362100 0.0 9941390
21:00−3e182362100 0.0 9951495